Location: Westminster
(33.3626°N, 96.4619°W)
Time: 21:25:33
(UTC+00:00)

Cosmos 2279 Rocket - Pass Details

Date: 03 December 2021
Orbit: 964 x 978 km, 82.9° (Epoch: 26 January)

Event Time Altitude Azimuth Distance (km) Brightness Sun altitude
Rises 12:08:31 0° 351° (N) 3,656 6.7 -13.4°
Reaches altitude 10° 12:11:02 10° 349° (NNW) 2,706 6.0 -12.9°
Maximum altitude 12:17:11 70° 267° (W) 1,024 3.9 -11.7°
Drops below altitude 10° 12:23:18 10° 185° (S) 2,695 6.5 -10.5°
Sets 12:25:48 0° 183° (S) 3,640 7.2 -10.0°
